When you browse on this site, cookies collect data to enhance your experience and personalize the content and advertising you see.
Visit our Privacy Policy to learn more. By continuing to use the site, you agree to this use of cookies and data.
  • In Hungary
  • List of Countries
  • For 7 days
  • Water Temperature
  • Satellite Maps
  • Weather Map
  • News
  • Weather Widgets
  • user-avatar
    Login

    Hourly Weather Cyklady

    Today, 20 January, Sunday

    Time Temperature Precipitation Wind Pressure Humidity
    00:00 +3°C° 0.1 mm 2 mps 682 mmHg 93%
    01:00 +3°C° 0.1 mm 2 mps 681 mmHg 93%
    02:00 +3°C° 0.2 mm 2 mps 681 mmHg 92%
    03:00 +3°C° 0.2 mm 2 mps 681 mmHg 92%
    04:00 +3°C° 0.2 mm 2 mps 681 mmHg 92%
    05:00 +3°C° 0.1 mm 2 mps 681 mmHg 92%
    06:00 +3°C° 0.1 mm 2 mps 681 mmHg 92%
    07:00 +2°C° 0.1 mm 2 mps 681 mmHg 92%
    08:00 +4°C° 0 mm 2 mps 681 mmHg 86%
    09:00 +6°C° 0 mm 2 mps 682 mmHg 81%
    10:00 +8°C° 0 mm 2 mps 682 mmHg 75%
    11:00 +9°C° 0 mm 2 mps 682 mmHg 71%
    12:00 +9°C° 0 mm 2 mps 682 mmHg 68%
    13:00 +10°C° 0 mm 3 mps 682 mmHg 64%
    14:00 +9°C° 0 mm 2 mps 681 mmHg 68%
    15:00 +8°C° 0 mm 2 mps 681 mmHg 72%
    16:00 +8°C° 0 mm 1 mps 681 mmHg 76%
    17:00 +7°C° 0 mm 1 mps 681 mmHg 80%
    18:00 +6°C° 0 mm 1 mps 680 mmHg 84%
    19:00 +4°C° 0 mm 1 mps 680 mmHg 88%
    20:00 +4°C° 0 mm 1 mps 680 mmHg 87%
    21:00 +4°C° 0 mm 1 mps 680 mmHg 87%
    22:00 +4°C° 0 mm 1 mps 680 mmHg 87%
    23:00 +4°C° 0 mm 1 mps 680 mmHg 86%

    Tomorrow, 21 January, Monday

    Time Temperature Precipitation Wind Pressure Humidity
    00:00 +4°C° 0 mm 1 mps 680 mmHg 84%
    01:00 +4°C° 0 mm 1 mps 680 mmHg 83%
    02:00 +3°C° 0 mm 1 mps 680 mmHg 81%
    03:00 +3°C° 0 mm 1 mps 680 mmHg 79%
    04:00 +3°C° 0 mm 1 mps 680 mmHg 77%
    05:00 +3°C° 0 mm 1 mps 680 mmHg 77%
    06:00 +3°C° 0 mm 1 mps 680 mmHg 76%
    07:00 +3°C° 0 mm 1 mps 681 mmHg 75%
    08:00 +5°C° 0 mm 1 mps 682 mmHg 71%
    09:00 +7°C° 0 mm 1 mps 682 mmHg 67%
    10:00 +9°C° 0 mm 0 mps 683 mmHg 62%
    11:00 +10°C° 0 mm 1 mps 683 mmHg 61%
    12:00 +11°C° 0 mm 1 mps 683 mmHg 60%
    13:00 +11°C° 0 mm 1 mps 683 mmHg 58%
    14:00 +10°C° 0 mm 1 mps 683 mmHg 64%
    15:00 +9°C° 0 mm 1 mps 682 mmHg 70%
    16:00 +9°C° 0 mm 1 mps 682 mmHg 76%
    17:00 +7°C° 0 mm 1 mps 682 mmHg 81%
    18:00 +6°C° 0 mm 1 mps 682 mmHg 86%
    19:00 +5°C° 0 mm 1 mps 682 mmHg 91%
    20:00 +5°C° 0 mm 1 mps 682 mmHg 92%
    21:00 +5°C° 0 mm 1 mps 682 mmHg 92%
    22:00 +4°C° 0 mm 1 mps 682 mmHg 92%
    23:00 +4°C° 0 mm 1 mps 682 mmHg 92%

    Day after tomorrow, 22 January, Tuesday

    Time Temperature Precipitation Wind Pressure Humidity
    00:00 +3°C° 0 mm 2 mps 682 mmHg 91%
    01:00 +3°C° 0 mm 2 mps 682 mmHg 91%
    02:00 +3°C° 0.1 mm 2 mps 682 mmHg 90%
    03:00 +3°C° 0.1 mm 2 mps 681 mmHg 89%
    04:00 +3°C° 0.1 mm 2 mps 681 mmHg 87%
    05:00 +3°C° 0.3 mm 2 mps 681 mmHg 87%
    06:00 +3°C° 0.3 mm 2 mps 681 mmHg 87%
    07:00 +3°C° 0.3 mm 2 mps 681 mmHg 87%
    08:00 +5°C° 0.2 mm 2 mps 681 mmHg 83%
    09:00 +6°C° 0.2 mm 2 mps 681 mmHg 78%
    10:00 +7°C° 0.2 mm 2 mps 682 mmHg 74%
    11:00 +8°C° 0.4 mm 3 mps 681 mmHg 74%
    12:00 +8°C° 0.4 mm 3 mps 681 mmHg 75%
    13:00 +8°C° 0.4 mm 4 mps 680 mmHg 76%
    14:00 +7°C° 0.7 mm 4 mps 679 mmHg 79%
    15:00 +7°C° 0.7 mm 3 mps 679 mmHg 82%
    16:00 +7°C° 0.7 mm 3 mps 678 mmHg 86%
    17:00 +5°C° 0.4 mm 3 mps 678 mmHg 89%
    18:00 +4°C° 0.4 mm 3 mps 678 mmHg 92%
    19:00 +4°C° 0.4 mm 2 mps 677 mmHg 95%
    20:00 +4°C° 0.9 mm 2 mps 677 mmHg 95%
    21:00 +4°C° 0.9 mm 3 mps 677 mmHg 95%
    22:00 +4°C° 0.9 mm 3 mps 677 mmHg 95%
    23:00 +4°C° 1.5 mm 3 mps 677 mmHg 95%

    23 January, Wednesday

    Time Temperature Precipitation Wind Pressure Humidity
    00:00 +4°C° 1.5 mm 3 mps 677 mmHg 95%
    01:00 +4°C° 1.5 mm 3 mps 676 mmHg 95%
    02:00 +4°C° 1.9 mm 3 mps 676 mmHg 95%
    03:00 +4°C° 1.9 mm 3 mps 676 mmHg 94%
    04:00 +4°C° 1.9 mm 3 mps 676 mmHg 94%
    05:00 +4°C° 1.9 mm 3 mps 676 mmHg 94%
    06:00 +5°C° 1.9 mm 2 mps 676 mmHg 95%
    07:00 +4°C° 1.9 mm 2 mps 676 mmHg 95%
    08:00 +4°C° 2.6 mm 2 mps 676 mmHg 95%
    09:00 +4°C° 2.6 mm 2 mps 676 mmHg 96%
    10:00 +4°C° 2.6 mm 2 mps 676 mmHg 96%
    11:00 +5°C° 2.7 mm 1 mps 676 mmHg 96%
    12:00 +5°C° 2.7 mm 1 mps 675 mmHg 96%
    13:00 +5°C° 2.7 mm 1 mps 675 mmHg 96%
    14:00 +5°C° 2.3 mm 1 mps 674 mmHg 96%
    15:00 +5°C° 2.3 mm 1 mps 674 mmHg 96%
    16:00 +5°C° 2.3 mm 1 mps 674 mmHg 96%
    17:00 +5°C° 2.6 mm 1 mps 674 mmHg 96%
    18:00 +4°C° 2.6 mm 1 mps 673 mmHg 96%
    19:00 +3°C° 2.6 mm 2 mps 673 mmHg 95%
    20:00 +3°C° 0.9 mm 2 mps 673 mmHg 95%
    21:00 +3°C° 0.9 mm 2 mps 672 mmHg 94%
    22:00 +4°C° 0.9 mm 2 mps 672 mmHg 94%
    23:00 +4°C° 0.3 mm 2 mps 671 mmHg 94%

    24 January, Thursday

    Time Temperature Precipitation Wind Pressure Humidity
    00:00 +4°C° 0.3 mm 2 mps 671 mmHg 94%
    01:00 +3°C° 0.3 mm 3 mps 670 mmHg 94%
    02:00 +3°C° 1.8 mm 3 mps 670 mmHg 95%
    03:00 +4°C° 1.8 mm 2 mps 669 mmHg 95%
    04:00 +4°C° 1.8 mm 2 mps 669 mmHg 96%
    05:00 +4°C° 2.6 mm 2 mps 669 mmHg 97%
    06:00 +4°C° 2.6 mm 2 mps 669 mmHg 97%
    07:00 +4°C° 2.6 mm 2 mps 669 mmHg 97%
    08:00 +4°C° 0.9 mm 2 mps 669 mmHg 95%
    09:00 +4°C° 0.9 mm 2 mps 669 mmHg 93%
    10:00 +4°C° 0.9 mm 3 mps 669 mmHg 91%
    11:00 +4°C° 0.6 mm 3 mps 669 mmHg 89%
    12:00 +5°C° 0.6 mm 3 mps 668 mmHg 87%
    13:00 +5°C° 0.6 mm 4 mps 668 mmHg 85%
    14:00 +5°C° 1.8 mm 4 mps 668 mmHg 88%
    15:00 +4°C° 1.8 mm 4 mps 668 mmHg 90%
    16:00 +3°C° 1.8 mm 5 mps 668 mmHg 92%
    17:00 +3°C° 1.6 mm 4 mps 668 mmHg 92%
    18:00 +3°C° 1.6 mm 4 mps 668 mmHg 92%
    19:00 +3°C° 1.6 mm 4 mps 669 mmHg 91%
    20:00 +3°C° 2.3 mm 4 mps 669 mmHg 93%
    21:00 +3°C° 2.3 mm 4 mps 669 mmHg 94%
    22:00 +3°C° 2.3 mm 4 mps 670 mmHg 95%
    23:00 +1°C° 0.9 mm 4 mps 670 mmHg 91%

    25 January, Friday

    Time Temperature Precipitation Wind Pressure Humidity
    00:00 +1°C° 0.9 mm 5 mps 670 mmHg 88%
    01:00 +1°C° 0.9 mm 5 mps 670 mmHg 85%
    02:00 0°C° 0.6 mm 4 mps 670 mmHg 86%
    03:00 +1°C° 0.6 mm 3 mps 670 mmHg 87%
    04:00 +1°C° 0.6 mm 2 mps 670 mmHg 88%
    05:00 +1°C° 0.6 mm 2 mps 670 mmHg 89%
    06:00 +1°C° 0.6 mm 2 mps 670 mmHg 90%
    07:00 +3°C° 0.6 mm 1 mps 671 mmHg 91%
    08:00 +3°C° 1.9 mm 1 mps 670 mmHg 92%
    09:00 +3°C° 1.9 mm 1 mps 670 mmHg 93%
    10:00 +3°C° 1.9 mm 1 mps 670 mmHg 93%
    11:00 +3°C° 1.5 mm 1 mps 670 mmHg 93%
    12:00 +3°C° 1.5 mm 1 mps 670 mmHg 94%
    13:00 +3°C° 1.5 mm 1 mps 669 mmHg 94%
    14:00 +3°C° 0.8 mm 1 mps 669 mmHg 94%
    15:00 +3°C° 0.8 mm 1 mps 669 mmHg 95%
    16:00 +3°C° 0.8 mm 1 mps 670 mmHg 95%
    17:00 +2°C° 0.1 mm 1 mps 670 mmHg 95%
    18:00 +2°C° 0.1 mm 1 mps 670 mmHg 95%
    19:00 -1°C° 0.1 mm 2 mps 670 mmHg 95%
    20:00 -1°C° 0 mm 2 mps 670 mmHg 95%
    21:00 -1°C° 0 mm 2 mps 670 mmHg 94%
    22:00 -2°C° 0 mm 2 mps 670 mmHg 94%
    23:00 -2°C° 0 mm 2 mps 670 mmHg 92%
    Show more